This demonstration page uses our WeatherBlox Daily Observations layout. Learn more.

Left ArrowRight Arrow

Hourly Observations for July 17, 2019

Temp ( °F °C ) Dew Point ( °F °C ) Humidity (%) Winds ( mph kmh ) Pressure ( in mb ) Visibility ( mi km ) Precip ( " mm )
12:56 am 00:56 Clear 77 25 73 22.8 88 88 SE 13 20 29.80 1009 10 16 0.00 0.00
1:56 am 01:56 Clear 76 24.4 72 22.2 88 88 SSE 12 19 29.79 1009 10 16 0.00 0.00
2:56 am 02:56 Clear 75 23.9 71 21.7 88 88 SSE 10 17 29.77 1008 10 16 0.00 0.00
3:56 am 03:56 Clear 74 23.3 70 21.1 88 88 SSE 12 19 29.73 1007 10 16 0.00 0.00
4:56 am 04:56 Clear 72 22.2 69 20.6 91 91 SSE 7 11 29.72 1006 10 16 0.00 0.00
5:56 am 05:56 Clear 72 22.2 69 20.6 91 91 SSE 10 17 29.71 1006 10 16 0.00 0.00
6:56 am 06:56 Sunny 71 21.7 68 20 90 90 SSE 6 9 29.74 1007 10 16 0.00 0.00
7:56 am 07:56 Sunny 74 23.3 69 20.6 85 85 SSE 8 13 29.74 1007 10 16 0.00 0.00
8:56 am 08:56 Sunny 77 25 69 20.6 77 77 S 6 9 29.75 1008 7 11 0.00 0.00
9:56 am 09:56 Hazy 80 26.7 69 20.6 69 69 VRB 3 6 29.78 1009 1 1 0.00 0.00
10:04 am 10:04 Mostly Cloudy 81 27 70 21 70 70 ESE 5 7 29.74 1007 N/A 0.00 0.00
10:17 am 10:17 Partly Cloudy 81 27 70 21 70 70 VRB 3 6 29.74 1007 N/A 0.00 0.00
10:56 am 10:56 Sunny 81 27.2 70 21.1 69 69 VRB 5 7 29.78 1008 10 16 0.00 0.00
11:56 am 11:56 Sunny 84 28.9 72 22.2 67 67 ENE 10 17 29.76 1008 N/A 0.00 0.00
12:56 pm 12:56 Sunny 85 29.4 73 22.8 68 68 ENE 12 19 29.76 1008 10 16 0.00 0.00
1:56 pm 13:56 Sunny 86 30 73 22.8 65 65 ESE 14 22 29.75 1007 10 16 0.00 0.00
2:56 pm 14:56 Sunny 89 31.7 74 23.3 61 61 SE 13 20 29.73 1007 10 16 0.00 0.00
3:56 pm 15:56 Sunny 92 33.3 73 22.8 54 54 SSE 13 20 29.70 1006 10 16 0.00 0.00
4:56 pm 16:56 Sunny 93 33.9 72 22.2 50 50 ESE 7 11 29.69 1005 10 16 0.00 0.00
5:56 pm 17:56 Sunny 91 32.8 76 24.4 61 61 ENE 8 13 29.67 1005 10 16 0.00 0.00
6:56 pm 18:56 Sunny 91 32.8 78 25.6 66 66 N 15 24 29.67 1005 10 16 0.00 0.00
7:56 pm 19:56 Sunny 85 29.4 77 25 77 77 NNE 12 19 29.67 1005 10 16 0.00 0.00
8:56 pm 20:56 Sunny 83 28.3 77 25 82 82 ENE 7 11 29.67 1005 10 16 0.00 0.00
9:56 pm 21:56 Clear 82 27.8 77 25 85 85 E 3 6 29.67 1005 10 16 0.00 0.00
10:56 pm 22:56 Clear 80 26.7 76 24.4 87 87 Calm 29.69 1005 10 16 0.00 0.00
11:56 pm 23:56 Clear 79 26.1 76 24.4 90 90 N 5 7 29.70 1006 10 16 0.00 0.00

Powered by AerisWeather